Location: *
(60.1759°S, 155.0663°W)
Time: 16:53:43
(UTC+00:00)

Genesis I - Pass Details

Date: 17 September 2019
Orbit: 487 x 537 km, 64.5° (Epoch: 19 October)

Event Time Altitude Azimuth Distance (km) Brightness Sun altitude
Exits shadow 14:21:49 15° 238° (WSW) 1,454 5.1 -15.6°
Maximum altitude 14:25:00 78° 151° (SSE) 533 3.3 -15.2°
Drops below altitude 10° 14:28:56 10° 65° (ENE) 1,753 6.5 -14.8°
Sets 14:31:07 0° 63° (ENE) 2,644 7.4 -14.5°
